Location: Mentone
(34.5413°N, 85.5351°W)
Time: 20:17:36
(UTC-05:00)

Vanguard 2 Rocket - Visible Passes

Search period start: 25 April 2015 00:00
Search period end: 05 May 2015 00:00
Orbit: 555 x 3332 km, 32.9° (Epoch: 25 April)

Date Brightness Start Highest point End Pass type
(mag) Time Alt. Az. Time Alt. Az. Time Alt. Az.
25 Apr 9.3 00:44:20 10° W 01:02:12 63° SW 01:02:12 63° SW visible
25 Apr 9.9 03:04:56 10° W 03:29:39 14° S 03:30:59 10° SSE visible
25 Apr 9.5 19:11:32 10° SW 19:25:25 67° SSE 19:45:29 10° E visible
25 Apr 9.5 21:26:07 10° W 21:43:58 85° S 22:00:11 21° E visible
25 Apr 9.3 23:43:10 10° W 00:03:25 75° SSW 00:05:58 69° SSE visible
26 Apr 10.1 02:02:22 10° W 02:35:34 - SSE 02:11:47 30° W visible
26 Apr 9.5 20:26:26 10° WSW 20:42:24 82° S 21:03:09 10° E visible
26 Apr 9.4 22:42:29 10° W 23:01:51 81° S 23:09:45 49° ESE visible
27 Apr 9.6 01:00:33 10° WNW 01:15:33 49° WSW 01:15:33 49° WSW visible
27 Apr10.403:47:17S03:47:17S03:21:22Wvisible
27 Apr 9.4 19:27:16 10° WSW 19:41:15 76° SSE 20:01:39 10° E visible
27 Apr 9.5 21:42:16 10° W 22:00:08 85° S 22:13:33 30° E visible
27 Apr 9.3 23:59:19 10° W 00:19:13 66° SSW 00:19:21 66° SSW visible
28 Apr 10.4 02:19:17 10° W 02:25:09 20° W 02:25:09 20° W visible
28 Apr 9.5 20:42:32 10° W 20:58:32 85° S 21:17:20 15° E visible
28 Apr 9.4 22:58:38 10° W 23:17:51 74° SSW 23:23:08 58° SE visible
29 Apr 10.0 01:17:00 10° W 01:28:57 36° WSW 01:28:57 36° WSW visible
29 Apr 9.4 19:43:15 10° WSW 19:57:16 83° S 20:17:49 10° E visible
29 Apr 9.4 21:58:25 10° W 22:16:15 81° SSW 22:26:57 39° ESE visible
30 Apr 9.6 00:15:34 10° WNW 00:32:45 53° SW 00:32:45 53° SW visible
30 Apr 10.7 02:37:12 10° W 02:38:34 12° W 02:38:34 12° W visible
30 Apr 9.4 20:58:40 10° W 21:14:42 84° S 21:30:47 22° ESE visible
30 Apr 9.4 23:14:47 10° W 23:33:38 64° SSW 23:36:35 60° S visible
01 May 10.3 01:33:56 10° W 01:42:24 25° WSW 01:42:24 25° WSW visible
01 May 9.4 19:59:20 10° W 20:13:24 85° S 20:33:58 10° E visible
01 May 9.4 22:14:33 10° W 22:32:13 73° SSW 22:40:27 46° SE visible
02 May 9.9 00:32:02 10° W 00:46:15 40° WSW 00:46:15 40° WSW visible
02 May 9.4 21:14:48 10° W 21:30:47 79° SSW 21:44:20 29° ESE visible
02 May 9.6 23:31:02 10° W 23:49:15 53° SSW 23:50:08 53° SSW visible
03 May 10.6 01:51:58 10° W 01:55:57 15° WSW 01:55:57 15° WSW visible
03 May 9.4 20:15:27 10° W 20:29:32 83° S 20:48:14 14° ESE visible
03 May 9.5 22:30:42 10° W 22:48:01 63° SSW 22:54:03 50° SSE visible
04 May 10.2 00:49:03 10° W 00:59:52 28° WSW 00:59:52 28° WSW visible
04 May 9.4 21:30:54 10° W 21:46:45 71° SSW 21:58:00 35° SE visible
